Regional Weather Roundup
Issued by NWS

Home | Current Version | Previous Version | Graphics & Text | Print | Product List | Glossary On
Versions: 1 2 3 4 5 6 7 8 9 10 11 12 13 14 15 16 17 18 19 20 21 22 23 24 25 26 27 28 29 30 31 32 33 34 35 36 37 38 39 40 41 42 43 44 45 46 47 48 49 50
000
ASUS43 KFSD 280602
RWRSD

WEATHER ROUNDUP FOR SOUTH DAKOTA
NATIONAL WEATHER SERVICE SIOUX FALLS SD
1200 AM CST WED JAN 28 2015

NOTE: "FAIR" INDICATES FEW OR NO CLOUDS BELOW 12,000 FEET WITH NO
SIGNIFICANT WEATHER AND/OR OBSTRUCTIONS TO VISIBILITY.


SDZ001>005-009-010-012>017-280700-
NORTHWEST AND NORTH CENTRAL SOUTH DAKOTA

CITY           SKY/WX    TMP DP  RH WIND       PRES   REMARKS
BUFFALO          N/A     43  30  60 W8        29.73S
FAITH            N/A     46  31  55 S7        29.77S
MOBRIDGE       MOCLDY    37  33  85 SE9       29.75F
$$

SDZ012>016-024>037-041>051-057-063-072>074-280700-
SOUTHWEST AND SOUTH CENTRAL SOUTH DAKOTA

CITY           SKY/WX    TMP DP  RH WIND       PRES   REMARKS
RAPID CTY ARPT PTCLDY    50  27  40 NW14      29.80S
PIERRE         CLOUDY    36  33  89 SE6       29.77F
CUSTER         CLEAR     46  25  43 SW12      29.92R
ELLSWORTH AFB  CLEAR     49  27  41 SW5       29.80S
PHILIP         MOCLDY    41  30  65 W3        29.77F
PINE RIDGE     PTCLDY    30  25  81 CALM      29.89R
WINNER         FAIR      49  33  54 S6        29.80F
$$

SDZ004>011-016>023-039-040-280700-
NORTHEAST SOUTH DAKOTA

CITY           SKY/WX    TMP DP  RH WIND       PRES   REMARKS
ABERDEEN       CLEAR     33  31  92 S7        29.85F WCI  27
WATERTOWN      CLEAR     34  31  88 S12       29.88S WCI  25
SISSETON         N/A     32  32 100 S20       29.90F WCI  20
$$

SDZ017-020-022-023-036>040-048>070-280700-
SOUTHEAST SOUTH DAKOTA

CITY           SKY/WX    TMP DP  RH WIND       PRES   REMARKS
SIOUX FALLS    CLEAR     36  31  82 S14G21    29.93F
HURON          PTCLDY    35  32  88 S13       29.86R WCI  26
MITCHELL       PTCLDY    36  32  85 S14       29.88S
YANKTON        PTCLDY    37  28  70 SE7       29.92F
$$

ABBREVIATIONS USED IN REMARKS
   TC - TEMPERATURE IN CELSIUS
  WCI - WIND CHILL INDEX
   HX - HEAT INDEX
  VSB - VISIBILITY




USA.gov is the U.S. government's official web portal to all federal, state and local government web resources and services.